EW4713 Weather Reports


Display with metric or nautical units.
time (UTC)temp
F
wind
direction
speed
MPH
gust
MPH
rain 1hr
in
rain 24hr
in
rain mn
in
humidity
%
barometer
mb
20260503213001 68 149 3.0 11.0 0.00 0.00 0.00 27 1003.6
20260503212500 68 110 4.0 10.0 0.00 0.00 0.00 28 1004.1
20260503212000 69 96 1.0 8.0 0.00 0.00 0.00 28 1004.0
20260503211503 69 110 3.0 9.0 0.00 0.00 0.00 28 1004.1
20260503211002 69 117 2.0 11.0 0.00 0.00 0.00 30 1004.1
20260503210501 68 122 4.0 11.0 0.00 0.00 0.00 28 1004.4
20260503210003 68 36 2.0 8.0 0.00 0.00 0.00 29 1004.4
20260503205501 66 134 8.0 8.0 0.00 0.00 0.00 29 1004.5
20260503204503 67 53 2.0 9.0 0.00 0.00 0.00 30 1004.6
20260503204001 68 159 2.0 9.0 0.00 0.00 0.00 30 1004.6
20260503203456 68 65 2.0 10.0 0.00 0.00 0.00 29 1004.5
20260503202956 68 173 4.0 10.0 0.00 0.00 0.00 28 1004.7
20260503202456 69 62 3.0 8.0 0.00 0.00 0.00 29 1004.6
20260503202001 67 150 2.0 8.0 0.00 0.00 0.00 30 1005.0
20260503200953 67 132 4.0 9.0 0.00 0.00 0.00 31 1005.0
20260503200454 67 64 3.0 9.0 0.00 0.00 0.00 31 1005.3
20260503195952 67 86 3.0 8.0 0.00 0.00 0.00 29 1005.3
20260503195454 67 132 2.0 15.0 0.00 0.00 0.00 31 1005.5
20260503194952 67 154 2.0 15.0 0.00 0.00 0.00 31 1005.7
20260503194453 67 110 2.0 9.0 0.00 0.00 0.00 30 1005.9
20260503193453 67 74 3.0 11.0 0.00 0.00 0.00 30 1005.9
20260503192953 66 180 1.0 7.0 0.00 0.00 0.00 31 1006.1
20260503192453 67 139 4.0 8.0 0.00 0.00 0.00 32 1006.0
20260503191951 66 170 3.0 10.0 0.00 0.00 0.00 32 1006.4
20260503190448 65 134 5.0 15.0 0.00 0.00 0.00 31 1006.7
20260503185950 64 166 2.0 10.0 0.00 0.00 0.00 33 1007.0
20260503185437 64 108 6.0 10.0 0.00 0.00 0.00 31 1006.7
20260503184939 64 157 4.0 10.0 0.00 0.00 0.00 32 1006.9
20260503183932 65 168 4.0 10.0 0.00 0.00 0.00 31 1007.1
20260503183432 64 197 4.0 8.0 0.00 0.00 0.00 31 1007.2
20260503182931 64 76 3.0 8.0 0.00 0.00 0.00 33 1007.3
20260503182434 64 191 4.0 13.0 0.00 0.00 0.00 32 1007.4
20260503181933 64 139 2.0 13.0 0.00 0.00 0.00 35 1007.4
20260503181431 64 130 2.0 8.0 0.00 0.00 0.00 34 1007.4
20260503180931 63 85 2.0 12.0 0.00 0.00 0.00 34 1007.5
20260503180433 62 159 3.0 12.0 0.00 0.00 0.00 34 1007.8
20260503175932 64 150 3.0 8.0 0.00 0.00 0.00 35 1007.9
20260503175432 61 132 2.0 8.0 0.00 0.00 0.00 33 1007.8
20260503174931 62 135 3.0 8.0 0.00 0.00 0.00 34 1007.7
20260503174432 62 110 2.0 6.0 0.00 0.00 0.00 34 1007.9
20260503173932 62 132 2.0 10.0 0.00 0.00 0.00 34 1008.4
20260503173432 60 85 2.0 11.0 0.00 0.00 0.00 36 1008.3
20260503172933 62 164 5.0 11.0 0.00 0.00 0.00 33 1008.2
20260503172432 61 160 3.0 8.0 0.00 0.00 0.00 36 1008.3
20260503171932 61 117 4.0 8.0 0.00 0.00 0.00 34 1008.2
20260503171430 61 135 3.0 10.0 0.00 0.00 0.00 35 1008.5
20260503170929 60 112 7.0 10.0 0.00 0.00 0.00 36 1008.5
20260503170430 60 341 3.0 7.0 0.00 0.00 0.00 37 1008.5
20260503150901 55 210 3.0 8.0 0.00 0.00 0.00 37 1009.5
20260503150403 55 148 2.0 8.0 0.00 0.00 0.00 38 1009.4
20260503130902 48 173 1.0 6.0 0.00 0.00 0.00 57 1009.2
20260503130400 47 126 1.0 6.0 0.00 0.00 0.00 58 1009.2
20260503090305 41 111 0.0 2.0 0.00 0.00 0.00 89 1007.8
20260503081216 38 114 0.0 0.0 0.00 0.00 0.00 96 1007.8
20260503080203 38 114 0.0 1.0 0.00 0.00 0.00 95 1007.6
20260503072705 38 69 0.0 2.0 0.00 0.00 0.00 94 1007.5
20260503072204 39 131 0.0 2.0 0.00 0.00 0.00 94 1007.7
20260503071704 39 105 0.0 2.0 0.00 0.00 0.00 94 1007.5
20260503071205 40 157 0.0 0.0 0.00 0.00 0.00 94 1007.5
20260503070703 39 157 0.0 0.0 0.00 0.00 0.00 94 1007.6
20260503070200 39 157 0.0 1.0 0.00 0.00 0.00 93 1007.5
20260503060204 42 157 0.0 0.0 0.00 0.00 0.00 88 1007.9
20260503054703 43 157 0.0 1.0 0.00 0.00 0.00 85 1007.9
20260503054205 43 157 0.0 1.0 0.00 0.00 0.00 84 1007.9
20260503053204 44 74 0.0 1.0 0.00 0.00 0.00 83 1007.6
20260503052200 44 151 0.0 0.0 0.00 0.00 0.00 81 1007.5
20260503051201 45 151 0.0 0.0 0.00 0.00 0.00 79 1007.6
20260503050702 46 151 0.0 1.0 0.00 0.00 0.00 79 1007.5
20260503050203 46 151 0.0 1.0 0.00 0.00 0.00 78 1007.9
20260503045701 47 151 0.0 1.0 0.00 0.00 0.00 77 1007.7
20260503045200 48 40 0.0 2.0 0.00 0.00 0.00 76 1007.5
20260503044705 49 353 0.0 3.0 0.00 0.00 0.00 75 1007.6
20260503044205 49 289 0.0 3.0 0.00 0.00 0.00 75 1007.8
20260503043732 47 279 0.0 0.0 0.00 0.00 0.00 77 1007.8
20260503043204 47 166 0.0 1.0 0.00 0.00 0.00 76 1007.8
20260503042203 49 120 0.0 3.0 0.00 0.00 0.00 73 1007.5
20260503041200 49 246 0.0 2.0 0.00 0.00 0.00 71 1007.4
20260503040720 49 99 0.0 1.0 0.00 0.00 0.00 71 1007.5
20260503040201 49 99 0.0 1.0 0.00 0.00 0.00 70 1007.6
20260503035701 50 279 0.0 0.0 0.00 0.00 0.00 68 1007.9
20260503035200 50 279 0.0 0.0 0.00 0.00 0.00 67 1007.7
20260503034704 51 279 0.0 0.0 0.00 0.00 0.00 65 1007.7
20260503034205 51 279 0.0 0.0 0.00 0.00 0.00 65 1007.6
20260503033710 51 180 0.0 1.0 0.00 0.00 0.00 66 1007.7
20260503033205 51 180 0.0 1.0 0.00 0.00 0.00 66 1007.6
20260503032705 51 154 0.0 1.0 0.00 0.00 0.00 66 1008.0
20260503032205 52 180 0.0 0.0 0.00 0.00 0.00 62 1007.8
20260503031703 53 180 0.0 1.0 0.00 0.00 0.00 60 1007.6
20260503031204 54 180 0.0 2.0 0.00 0.00 0.00 58 1007.6
20260503030206 55 7 0.0 6.0 0.00 0.00 0.00 54 1007.4
20260503025703 54 276 1.0 6.0 0.00 0.00 0.00 56 1007.3
20260503025204 53 336 0.0 5.0 0.00 0.00 0.00 59 1007.4
20260503024705 54 286 0.0 4.0 0.00 0.00 0.00 58 1007.3
20260503024206 54 327 2.0 3.0 0.00 0.00 0.00 58 1007.7
20260503023658 53 81 0.0 3.0 0.00 0.00 0.00 58 1007.6
20260503023156 53 0 0.0 2.0 0.00 0.00 0.00 59 1007.5
20260503022653 54 7 0.0 2.0 0.00 0.00 0.00 59 1007.3
20260503022149 54 315 0.0 2.0 0.00 0.00 0.00 57 1007.4
20260503021645 54 340 0.0 2.0 0.00 0.00 0.00 57 1007.1
20260503021144 54 0 0.0 2.0 0.00 0.00 0.00 56 1007.5
20260503020644 54 0 0.0 2.0 0.00 0.00 0.00 58 1007.6
20260503020138 54 300 0.0 2.0 0.00 0.00 0.00 58 1007.3
20260503015632 54 307 0.0 2.0 0.00 0.00 0.00 58 1007.4
20260503015133 54 0 0.0 2.0 0.00 0.00 0.00 57 1007.3
20260503014630 55 0 0.0 0.0 0.00 0.00 0.00 56 1007.5
20260503014129 55 0 0.0 1.0 0.00 0.00 0.00 57 1007.3
20260503013629 55 0 0.0 1.0 0.00 0.00 0.00 56 1007.4
20260503012628 56 254 0.0 1.0 0.00 0.00 0.00 55 1007.3
20260503012130 56 0 0.0 2.0 0.00 0.00 0.00 55 1007.6
20260503011630 56 0 0.0 2.0 0.00 0.00 0.00 54 1007.3
20260503011129 56 15 0.0 2.0 0.00 0.00 0.00 54 1007.2
20260503010630 56 352 0.0 2.0 0.00 0.00 0.00 55 1007.3
20260503005629 57 306 1.0 2.0 0.00 0.00 0.00 53 1007.3
20260503005128 57 350 0.0 2.0 0.00 0.00 0.00 53 1007.4
20260503004628 57 340 0.0 3.0 0.00 0.00 0.00 53 1007.4
20260503004129 57 286 1.0 3.0 0.00 0.00 0.00 53 1007.7
20260503003630 58 254 0.0 3.0 0.00 0.00 0.00 53 1007.6
20260503003129 58 323 0.0 4.0 0.00 0.00 0.00 52 1007.5
20260503002629 58 325 0.0 4.0 0.00 0.00 0.00 52 1007.6
20260503002129 58 340 0.0 4.0 0.00 0.00 0.00 52 1007.4
20260503000632 58 283 0.0 4.0 0.00 0.00 0.00 53 1007.9
20260503000132 58 270 0.0 3.0 0.00 0.00 0.00 53 1008.0
20260502235633 58 279 0.0 3.0 0.00 0.00 0.00 54 1007.8
20260502235133 58 341 0.0 3.0 0.00 0.00 0.00 53 1008.0
20260502234631 58 339 2.0 3.0 0.00 0.00 0.00 52 1008.0
20260502234131 58 345 1.0 2.0 0.00 0.00 0.00 53 1008.1
20260502233129 58 345 1.0 4.0 0.00 0.00 0.00 52 1008.4
20260502232629 58 292 2.0 4.0 0.00 0.00 0.00 50 1008.4
20260502231630 58 277 1.0 4.0 0.00 0.00 0.00 56 1008.8
20260502230630 58 330 2.0 4.0 0.00 0.00 0.00 56 1008.9
20260502230130 58 249 0.0 3.0 0.00 0.00 0.00 57 1008.8
20260502225629 58 128 0.0 2.0 0.00 0.00 0.00 57 1009.1
20260502225128 58 294 0.0 2.0 0.00 0.00 0.00 51 1008.9
20260502224630 58 294 0.0 2.0 0.00 0.00 0.00 50 1008.8
20260502224131 58 345 1.0 1.0 0.00 0.00 0.00 49 1009.0
20260502223631 59 90 0.0 2.0 0.00 0.00 0.00 49 1009.0
20260502222628 59 306 0.0 2.0 0.00 0.00 0.00 48 1008.6
20260502222117 59 29 1.0 3.0 0.00 0.00 0.00 48 1008.8
20260502221612 59 0 0.0 3.0 0.00 0.00 0.00 46 1009.1
20260502221101 59 157 0.0 2.0 0.00 0.00 0.00 49 1009.3
20260502220603 59 81 0.0 3.0 0.00 0.00 0.00 48 1009.2
20260502215601 59 82 0.0 3.0 0.00 0.00 0.00 46 1008.9
20260502215100 59 8 0.0 6.0 0.00 0.00 0.00 48 1009.1
20260502214603 59 107 3.0 6.0 0.00 0.00 0.00 47 1009.0
20260502214100 59 72 2.0 3.0 0.00 0.00 0.00 47 1009.2
20260502213603 59 0 1.0 5.0 0.00 0.00 0.00 47 1009.3